QPF
0.01 0.03 0.03 0.03 0.04 0.04 0.05 0.06 0.06 0.09 0.07 0.05 0.05 0.07 0.08 0.09 0.08 0.09 0.10 0.11 0.10 0.08 0.07 0.08 0.06 0.06 0.05 0.05 0.05 0.05 0.06 0.07 0.08 0.07 0.05 0.05 0.04 0.04 0.04 0.04 0.04 0.04 0.03
0.01 0.01 0.02 0.03 0.05 0.05 0.05 0.06 0.05 0.06 0.05 0.04 0.04 0.05 0.08 0.10 0.08 0.07 0.06 0.06 0.07 0.07 0.07 0.07 0.06 0.06 0.05 0.04 0.04 0.06 0.05 0.07 0.08 0.07 0.07 0.07 0.05 0.04 0.04 0.04 0.03 0.03 0.03
0.01 0.01 0.02 0.04 0.05 0.06 0.06 0.06 0.06 0.05 0.04 0.03 0.03 0.04 0.06 0.08 0.08 0.08 0.06 0.05 0.05 0.06 0.06 0.06 0.06 0.05 0.05 0.05 0.06 0.15 0.16 0.07 0.05 0.05 0.06 0.07 0.06 0.04 0.04 0.04 0.04 0.05 0.05
0.01 0.02 0.04 0.04 0.06 0.06 0.06 0.06 0.06 0.04 0.04 0.04 0.04 0.07 0.09 0.08 0.08 0.10 0.09 0.06 0.05 0.04 0.04 0.05 0.05 0.07 0.07 0.08 0.09 0.17 0.29 0.14 0.07 0.07 0.07 0.06 0.06 0.05 0.04 0.03 0.03 0.03 0.03
0.01 0.02 0.03 0.03 0.05 0.06 0.07 0.08 0.07 0.05 0.05 0.04 0.09 0.12 0.06 0.06 0.07 0.07 0.08 0.07 0.06 0.05 0.04 0.06 0.09 0.09 0.10 0.13 0.13 0.15 0.17 0.13 0.11 0.10 0.08 0.06 0.07 0.06 0.04 0.04 0.03 0.02 0.02
0.02 0.02 0.02 0.03 0.05 0.06 0.07 0.07 0.07 0.06 0.05 0.05 0.07 0.05 0.04 0.06 0.06 0.08 0.07 0.06 0.08 0.10 0.09 0.08 0.09 0.11 0.12 0.13 0.14 0.16 0.16 0.14 0.12 0.09 0.07 0.07 0.06 0.05 0.05 0.05 0.04 0.04 0.03
0.04 0.05 0.03 0.03 0.04 0.04 0.06 0.07 0.08 0.08 0.06 0.06 0.07 0.08 0.08 0.05 0.06 0.07 0.06 0.06 0.06 0.06 0.10 0.11 0.13 0.14 0.11 0.10 0.11 0.13 0.14 0.15 0.12 0.09 0.08 0.08 0.07 0.05 0.05 0.04 0.05 0.06 0.06
0.05 0.04 0.04 0.03 0.04 0.05 0.07 0.08 0.07 0.07 0.06 0.08 0.08 0.07 0.07 0.07 0.06 0.06 0.06 0.05 0.05 0.07 0.08 0.07 0.08 0.08 0.08 0.10 0.11 0.10 0.16 0.18 0.13 0.09 0.07 0.07 0.05 0.06 0.07 0.05 0.05 0.05 0.07
0.04 0.02 0.03 0.03 0.02 0.03 0.04 0.05 0.08 0.09 0.08 0.09 0.10 0.09 0.07 0.06 0.06 0.07 0.06 0.05 0.04 0.05 0.06 0.05 0.05 0.07 0.09 0.12 0.09 0.10 0.12 0.17 0.19 0.15 0.12 0.10 0.08 0.06 0.11 0.14 0.11 0.08 0.07
0.03 0.02 0.02 0.01 0.01 0.01 0.02 0.03 0.05 0.07 0.08 0.09 0.09 0.08 0.08 0.08 0.09 0.07 0.06 0.06 0.06 0.07 0.05 0.06 0.07 0.08 0.09 0.09 0.09 0.11 0.10 0.10 0.12 0.14 0.14 0.14 0.11 0.08 0.08 0.13 0.18 0.17 0.13
0.04 0.05 0.05 0.04 0.03 0.02 0.02 0.03 0.03 0.05 0.06 0.07 0.08 0.08 0.09 0.08 0.07 0.06 0.05 0.05 0.06 0.06 0.05 0.07 0.09 0.08 0.07 0.06 0.05 0.07 0.08 0.06 0.06 0.10 0.13 0.13 0.11 0.10 0.09 0.10 0.12 0.18 0.20
0.03 0.04 0.06 0.09 0.09 0.05 0.03 0.03 0.03 0.04 0.04 0.06 0.08 0.10 0.10 0.09 0.07 0.06 0.05 0.04 0.05 0.06 0.06 0.06 0.07 0.08 0.07 0.07 0.06 0.07 0.07 0.06 0.04 0.05 0.08 0.10 0.10 0.09 0.09 0.09 0.08 0.10 0.16
0.02 0.03 0.04 0.06 0.07 0.06 0.04 0.03 0.03 0.03 0.04 0.04 0.05 0.06 0.08 0.09 0.10 0.09 0.07 0.06 0.06 0.06 0.06 0.07 0.07 0.07 0.07 0.07 0.08 0.09 0.06 0.05 0.04 0.03 0.03 0.05 0.06 0.06 0.07 0.07 0.06 0.07 0.09
0.02 0.02 0.03 0.03 0.03 0.04 0.04 0.03 0.03 0.02 0.03 0.03 0.04 0.04 0.04 0.04 0.06 0.08 0.08 0.08 0.06 0.05 0.05 0.07 0.08 0.07 0.09 0.14 0.17 0.13 0.10 0.08 0.07 0.05 0.03 0.04 0.04 0.04 0.05 0.05 0.04 0.04 0.06
0.02 0.02 0.02 0.02 0.03 0.03 0.04 0.04 0.03 0.03 0.03 0.02 0.03 0.03 0.04 0.04 0.04 0.05 0.06 0.07 0.07 0.05 0.03 0.03 0.05 0.06 0.08 0.09 0.09 0.06 0.06 0.08 0.07 0.06 0.04 0.04 0.03 0.03 0.03 0.04 0.04 0.04 0.05
0.03 0.03 0.02 0.01 0.02 0.03 0.04 0.04 0.03 0.03 0.03 0.02 0.03 0.03 0.03 0.03 0.04 0.05 0.05 0.06 0.06 0.04 0.02 0.01 0.02 0.03 0.06 0.06 0.06 0.05 0.05 0.07 0.06 0.04 0.02 0.02 0.02 0.02 0.02 0.02 0.03 0.03 0.03
0.01 0.01 0.02 0.02 0.01 0.02 0.03 0.03 0.03 0.03 0.03 0.03 0.03 0.04 0.03 0.03 0.04 0.05 0.06 0.06 0.05 0.04 0.03 0.02 0.02 0.02 0.05 0.06 0.06 0.05 0.06 0.06 0.03 0.03 0.02 0.01 0.01 0.01 0.01 0.02 0.02 0.02 0.02
0.01 0.01 0.01 0.01 0.01 0.01 0.02 0.02 0.02 0.03 0.03 0.02 0.03 0.03 0.04 0.05 0.05 0.05 0.06 0.06 0.05 0.03 0.03 0.02 0.01 0.01 0.03 0.05 0.06 0.06 0.06 0.05 0.04 0.04 0.04 0.02 0.01 0.01 0.01 0.01 0.01 0.01 0.02
0.00 0.01 0.01 0.01 0.01 0.01 0.01 0.01 0.01 0.02 0.02 0.02 0.02 0.02 0.04 0.05 0.04 0.06 0.06 0.05 0.04 0.03 0.03 0.03 0.02 0.01 0.02 0.03 0.05 0.07 0.06 0.05 0.05 0.06 0.06 0.05 0.03 0.02 0.01 0.01 0.01 0.01 0.01
0.00 0.01 0.01 0.00 0.00 0.01 0.01 0.01 0.01 0.02 0.02 0.02 0.01 0.02 0.02 0.03 0.03 0.05 0.06 0.06 0.05 0.05 0.05 0.04 0.03 0.03 0.02 0.02 0.03 0.04 0.05 0.06 0.06 0.04 0.04 0.05 0.04 0.03 0.03 0.02 0.02 0.01 0.01
0.01 0.01 0.00 0.00 0.00 0.01 0.01 0.01 0.01 0.02 0.03 0.02 0.01 0.01 0.02 0.02 0.03 0.04 0.05 0.06 0.07 0.07 0.06 0.05 0.04 0.03 0.03 0.03 0.02 0.03 0.04 0.05 0.07 0.07 0.05 0.04 0.04 0.03 0.03 0.02 0.02 0.02 0.01
0.01 0.00 0.00 0.00 0.00 0.00 0.00 0.00 0.01 0.01 0.02 0.02 0.01 0.01 0.01 0.02 0.03 0.03 0.04 0.05 0.06 0.06 0.07 0.06 0.05 0.05 0.04 0.04 0.04 0.03 0.04 0.06 0.06 0.07 0.06 0.04 0.04 0.04 0.03 0.03 0.03 0.02 0.02
0.01 0.00 0.00 0.00 0.00 0.01 0.00 0.00 0.01 0.01 0.01 0.02 0.02 0.01 0.01 0.02 0.02 0.02 0.03 0.03 0.04 0.06 0.06 0.06 0.06 0.04 0.05 0.05 0.06 0.05 0.04 0.03 0.03 0.05 0.06 0.06 0.05 0.05 0.06 0.05 0.04 0.04 0.04
0.00 0.00 0.01 0.01 0.01 0.01 0.01 0.00 0.01 0.01 0.01 0.01 0.02 0.01 0.01 0.01 0.01 0.02 0.02 0.02 0.03 0.05 0.07 0.08 0.08 0.07 0.07 0.07 0.08 0.07 0.06 0.06 0.05 0.04 0.05 0.06 0.06 0.05 0.05 0.06 0.05 0.05 0.05
0.01 0.01 0.01 0.02 0.01 0.01 0.01 0.00 0.00 0.01 0.01 0.01 0.01 0.01 0.01 0.01 0.02 0.02 0.02 0.02 0.02 0.03 0.05 0.06 0.08 0.09 0.11 0.12 0.11 0.10 0.09 0.08 0.06 0.05 0.04 0.05 0.06 0.06 0.05 0.06 0.06 0.05 0.05
0.01 0.01 0.01 0.01 0.01 0.01 0.01 0.00 0.00 0.01 0.01 0.01 0.01 0.02 0.02 0.02 0.03 0.02 0.03 0.03 0.03 0.03 0.05 0.06 0.07 0.08 0.09 0.12 0.14 0.13 0.12 0.12 0.09 0.07 0.05 0.05 0.05 0.07 0.08 0.05 0.04 0.05 0.04
MSLP
1007.47 1007.42 1007.35 1007.30 1007.31 1007.40 1007.59 1007.86 1008.21 1008.59 1008.99 1009.36 1009.71 1010.01 1010.26 1010.49 1010.68 1010.87 1011.08 1011.31 1011.57 1011.87 1012.21 1012.59 1012.98 1013.37 1013.74 1014.06 1014.32 1014.54 1014.73 1014.90 1015.09 1015.32 1015.61 1015.93 1016.29 1016.63 1016.94 1017.19 1017.35 1017.44 1017.47
1007.91 1007.89 1007.87 1007.87 1007.92 1008.04 1008.23 1008.50 1008.83 1009.18 1009.54 1009.88 1010.18 1010.44 1010.65 1010.82 1010.97 1011.11 1011.26 1011.45 1011.69 1011.97 1012.31 1012.69 1013.09 1013.47 1013.82 1014.12 1014.37 1014.56 1014.72 1014.88 1015.07 1015.30 1015.59 1015.93 1016.28 1016.63 1016.93 1017.16 1017.32 1017.41 1017.44
1008.07 1008.10 1008.14 1008.21 1008.33 1008.50 1008.73 1009.01 1009.33 1009.66 1010.00 1010.31 1010.59 1010.82 1011.01 1011.16 1011.27 1011.38 1011.49 1011.64 1011.83 1012.07 1012.38 1012.72 1013.09 1013.45 1013.79 1014.07 1014.30 1014.49 1014.65 1014.81 1015.01 1015.25 1015.54 1015.88 1016.23 1016.57 1016.87 1017.10 1017.26 1017.35 1017.41
1007.99 1008.06 1008.16 1008.31 1008.51 1008.75 1009.03 1009.34 1009.67 1010.00 1010.32 1010.63 1010.91 1011.15 1011.35 1011.49 1011.61 1011.69 1011.77 1011.86 1011.99 1012.17 1012.40 1012.68 1013.00 1013.32 1013.63 1013.90 1014.13 1014.33 1014.51 1014.70 1014.91 1015.16 1015.46 1015.79 1016.13 1016.47 1016.76 1016.99 1017.16 1017.27 1017.35
1007.77 1007.85 1008.01 1008.23 1008.51 1008.82 1009.15 1009.49 1009.83 1010.17 1010.50 1010.82 1011.12 1011.39 1011.63 1011.81 1011.93 1012.01 1012.06 1012.10 1012.15 1012.24 1012.38 1012.58 1012.82 1013.09 1013.37 1013.64 1013.89 1014.11 1014.32 1014.53 1014.77 1015.03 1015.33 1015.65 1015.99 1016.30 1016.59 1016.83 1017.02 1017.16 1017.27
1007.57 1007.63 1007.81 1008.07 1008.39 1008.75 1009.11 1009.47 1009.83 1010.17 1010.52 1010.87 1011.21 1011.53 1011.81 1012.04 1012.20 1012.29 1012.32 1012.31 1012.29 1012.29 1012.33 1012.43 1012.59 1012.81 1013.06 1013.32 1013.58 1013.83 1014.07 1014.31 1014.57 1014.84 1015.14 1015.45 1015.77 1016.08 1016.37 1016.62 1016.83 1017.01 1017.15
1007.53 1007.54 1007.69 1007.95 1008.28 1008.64 1009.00 1009.35 1009.69 1010.03 1010.38 1010.75 1011.13 1011.50 1011.85 1012.14 1012.35 1012.46 1012.48 1012.44 1012.35 1012.27 1012.23 1012.24 1012.33 1012.49 1012.71 1012.96 1013.23 1013.51 1013.78 1014.05 1014.31 1014.59 1014.88 1015.18 1015.49 1015.80 1016.09 1016.35 1016.59 1016.81 1016.99
1007.76 1007.69 1007.78 1007.99 1008.26 1008.57 1008.88 1009.18 1009.47 1009.77 1010.10 1010.47 1010.87 1011.29 1011.69 1012.04 1012.30 1012.45 1012.48 1012.43 1012.31 1012.17 1012.06 1012.01 1012.03 1012.15 1012.34 1012.58 1012.86 1013.15 1013.43 1013.71 1013.98 1014.26 1014.54 1014.84 1015.14 1015.45 1015.75 1016.04 1016.31 1016.56 1016.79
1008.28 1008.12 1008.12 1008.23 1008.41 1008.61 1008.82 1009.02 1009.21 1009.44 1009.71 1010.04 1010.43 1010.87 1011.31 1011.71 1012.01 1012.21 1012.27 1012.23 1012.10 1011.95 1011.80 1011.71 1011.69 1011.78 1011.94 1012.17 1012.44 1012.72 1013.01 1013.29 1013.56 1013.84 1014.12 1014.41 1014.71 1015.03 1015.35 1015.67 1015.98 1016.27 1016.53
1009.04 1008.79 1008.68 1008.67 1008.73 1008.79 1008.85 1008.91 1008.97 1009.08 1009.25 1009.52 1009.87 1010.29 1010.73 1011.15 1011.50 1011.73 1011.83 1011.81 1011.71 1011.56 1011.41 1011.31 1011.29 1011.35 1011.49 1011.70 1011.95 1012.22 1012.50 1012.77 1013.04 1013.31 1013.60 1013.90 1014.22 1014.56 1014.91 1015.25 1015.60 1015.93 1016.23
1009.92 1009.60 1009.39 1009.26 1009.17 1009.08 1008.98 1008.87 1008.79 1008.75 1008.81 1008.97 1009.25 1009.62 1010.03 1010.45 1010.80 1011.06 1011.19 1011.21 1011.14 1011.02 1010.89 1010.80 1010.78 1010.83 1010.95 1011.14 1011.37 1011.61 1011.87 1012.14 1012.41 1012.69 1012.99 1013.31 1013.67 1014.04 1014.42 1014.80 1015.18 1015.54 1015.87
1010.78 1010.41 1010.12 1009.89 1009.67 1009.43 1009.19 1008.93 1008.69 1008.51 1008.44 1008.49 1008.67 1008.95 1009.30 1009.67 1010.01 1010.26 1010.40 1010.45 1010.41 1010.33 1010.23 1010.16 1010.14 1010.19 1010.30 1010.46 1010.66 1010.89 1011.13 1011.39 1011.67 1011.97 1012.31 1012.67 1013.07 1013.48 1013.91 1014.32 1014.72 1015.10 1015.45
1011.48 1011.10 1010.77 1010.46 1010.15 1009.81 1009.44 1009.06 1008.69 1008.39 1008.20 1008.13 1008.20 1008.38 1008.64 1008.93 1009.21 1009.42 1009.55 1009.60 1009.58 1009.52 1009.45 1009.39 1009.38 1009.42 1009.51 1009.66 1009.83 1010.05 1010.28 1010.55 1010.85 1011.19 1011.58 1012.00 1012.45 1012.91 1013.37 1013.82 1014.23 1014.62 1014.97
1011.96 1011.59 1011.24 1010.90 1010.53 1010.13 1009.70 1009.24 1008.80 1008.42 1008.13 1007.96 1007.92 1007.99 1008.13 1008.32 1008.50 1008.64 1008.73 1008.75 1008.71 1008.65 1008.58 1008.53 1008.52 1008.55 1008.63 1008.75 1008.91 1009.11 1009.35 1009.64 1009.98 1010.38 1010.82 1011.31 1011.82 1012.33 1012.83 1013.29 1013.72 1014.10 1014.45
1012.18 1011.84 1011.51 1011.17 1010.79 1010.38 1009.92 1009.45 1008.98 1008.55 1008.21 1007.97 1007.83 1007.79 1007.81 1007.88 1007.95 1007.99 1007.99 1007.95 1007.87 1007.79 1007.71 1007.64 1007.61 1007.63 1007.69 1007.79 1007.93 1008.13 1008.39 1008.71 1009.09 1009.55 1010.06 1010.61 1011.19 1011.75 1012.28 1012.76 1013.18 1013.55 1013.88
1012.18 1011.87 1011.56 1011.24 1010.89 1010.51 1010.08 1009.63 1009.18 1008.76 1008.40 1008.11 1007.90 1007.76 1007.68 1007.62 1007.56 1007.49 1007.39 1007.27 1007.14 1007.00 1006.88 1006.79 1006.73 1006.72 1006.75 1006.83 1006.97 1007.17 1007.43 1007.79 1008.22 1008.73 1009.31 1009.92 1010.55 1011.15 1011.71 1012.19 1012.61 1012.97 1013.29
1012.01 1011.72 1011.44 1011.16 1010.85 1010.51 1010.14 1009.74 1009.34 1008.95 1008.60 1008.30 1008.05 1007.84 1007.65 1007.49 1007.32 1007.14 1006.94 1006.74 1006.53 1006.34 1006.17 1006.04 1005.94 1005.89 1005.89 1005.95 1006.06 1006.25 1006.53 1006.90 1007.37 1007.93 1008.56 1009.22 1009.88 1010.51 1011.09 1011.59 1012.01 1012.36 1012.67
1011.78 1011.50 1011.24 1010.98 1010.71 1010.41 1010.10 1009.76 1009.41 1009.06 1008.74 1008.43 1008.16 1007.90 1007.65 1007.41 1007.15 1006.88 1006.61 1006.33 1006.06 1005.81 1005.60 1005.41 1005.28 1005.18 1005.14 1005.15 1005.24 1005.41 1005.68 1006.06 1006.55 1007.13 1007.79 1008.47 1009.17 1009.82 1010.41 1010.91 1011.34 1011.70 1012.03
1011.58 1011.29 1011.03 1010.78 1010.52 1010.25 1009.96 1009.66 1009.35 1009.03 1008.72 1008.43 1008.14 1007.86 1007.57 1007.28 1006.97 1006.66 1006.33 1006.01 1005.69 1005.41 1005.14 1004.91 1004.73 1004.58 1004.48 1004.45 1004.49 1004.62 1004.87 1005.23 1005.71 1006.30 1006.96 1007.66 1008.36 1009.03 1009.63 1010.15 1010.60 1010.99 1011.36
1011.48 1011.17 1010.90 1010.63 1010.35 1010.07 1009.77 1009.46 1009.15 1008.83 1008.53 1008.23 1007.93 1007.64 1007.34 1007.03 1006.71 1006.38 1006.03 1005.69 1005.36 1005.04 1004.75 1004.47 1004.23 1004.03 1003.87 1003.77 1003.75 1003.83 1004.03 1004.36 1004.82 1005.39 1006.05 1006.75 1007.45 1008.13 1008.76 1009.31 1009.79 1010.23 1010.65
1011.54 1011.21 1010.89 1010.58 1010.27 1009.93 1009.58 1009.21 1008.85 1008.49 1008.15 1007.83 1007.52 1007.22 1006.92 1006.62 1006.31 1005.98 1005.65 1005.31 1004.98 1004.64 1004.31 1004.00 1003.70 1003.43 1003.20 1003.03 1002.94 1002.97 1003.11 1003.40 1003.83 1004.37 1005.02 1005.72 1006.44 1007.13 1007.79 1008.38 1008.91 1009.41 1009.89
1011.76 1011.41 1011.05 1010.68 1010.29 1009.87 1009.42 1008.97 1008.51 1008.07 1007.66 1007.28 1006.93 1006.61 1006.31 1006.02 1005.73 1005.43 1005.12 1004.79 1004.45 1004.10 1003.74 1003.37 1003.01 1002.67 1002.37 1002.13 1001.97 1001.94 1002.04 1002.29 1002.70 1003.23 1003.87 1004.59 1005.33 1006.05 1006.75 1007.39 1007.99 1008.55 1009.11
1012.11 1011.75 1011.35 1010.93 1010.44 1009.91 1009.35 1008.77 1008.19 1007.63 1007.13 1006.67 1006.26 1005.90 1005.58 1005.29 1005.00 1004.71 1004.41 1004.08 1003.72 1003.34 1002.93 1002.51 1002.07 1001.66 1001.28 1000.97 1000.77 1000.69 1000.77 1001.01 1001.41 1001.97 1002.63 1003.38 1004.15 1004.93 1005.68 1006.39 1007.05 1007.68 1008.31
1012.54 1012.17 1011.76 1011.27 1010.71 1010.07 1009.38 1008.67 1007.96 1007.27 1006.64 1006.08 1005.59 1005.17 1004.81 1004.48 1004.17 1003.86 1003.52 1003.16 1002.76 1002.32 1001.84 1001.33 1000.82 1000.33 999.89 999.53 999.30 999.21 999.29 999.55 1000.00 1000.60 1001.32 1002.13 1002.97 1003.81 1004.63 1005.40 1006.12 1006.81 1007.50
1012.95 1012.60 1012.17 1011.65 1011.02 1010.31 1009.51 1008.69 1007.85 1007.05 1006.29 1005.63 1005.04 1004.53 1004.09 1003.69 1003.32 1002.94 1002.54 1002.10 1001.61 1001.07 1000.49 999.89 999.29 998.72 998.22 997.83 997.59 997.52 997.65 997.97 998.49 999.17 999.98 1000.87 1001.80 1002.73 1003.61 1004.45 1005.23 1005.97 1006.69
1013.24 1012.92 1012.51 1011.97 1011.32 1010.56 1009.71 1008.80 1007.88 1006.98 1006.13 1005.37 1004.68 1004.07 1003.53 1003.04 1002.56 1002.07 1001.55 1000.98 1000.36 999.69 998.99 998.27 997.57 996.93 996.38 995.98 995.75 995.73 995.92 996.33 996.95 997.75 998.67 999.66 1000.68 1001.69 1002.65 1003.54 1004.36 1005.13 1005.87
Thickness
5778 5777 5776 5775 5774 5773 5773 5771 5770 5769 5768 5768 5767 5766 5765 5765 5763 5762 5762 5760 5759 5757 5756 5754 5753 5751 5750 5749 5749 5749 5748 5747 5745 5743 5741 5739 5737 5736 5735 5734 5732 5731 5730
5778 5777 5776 5775 5774 5773 5772 5771 5769 5768 5767 5766 5765 5765 5765 5764 5762 5762 5761 5760 5758 5756 5754 5753 5752 5751 5750 5749 5749 5749 5749 5748 5746 5744 5741 5739 5737 5736 5734 5733 5732 5731 5729
5779 5777 5776 5775 5774 5774 5772 5770 5769 5767 5766 5764 5764 5764 5763 5763 5762 5760 5759 5758 5757 5756 5754 5753 5751 5750 5750 5749 5749 5749 5749 5748 5746 5744 5742 5740 5738 5736 5734 5733 5731 5730 5729
5779 5777 5776 5775 5775 5773 5771 5769 5767 5765 5763 5762 5761 5762 5762 5761 5761 5760 5758 5757 5756 5755 5753 5752 5751 5749 5749 5748 5748 5748 5747 5746 5745 5743 5742 5740 5738 5735 5734 5732 5730 5729 5728
5779 5778 5776 5775 5774 5773 5771 5769 5767 5765 5762 5760 5760 5760 5760 5759 5759 5759 5757 5756 5755 5754 5753 5751 5750 5748 5748 5747 5747 5747 5747 5745 5744 5742 5741 5739 5737 5735 5733 5731 5729 5728 5727
5779 5777 5775 5774 5773 5771 5769 5768 5765 5764 5762 5760 5759 5759 5758 5758 5758 5757 5756 5755 5754 5753 5752 5750 5748 5747 5747 5746 5746 5746 5746 5745 5743 5742 5740 5739 5737 5734 5732 5730 5729 5727 5726
5778 5777 5775 5773 5772 5769 5767 5766 5764 5762 5760 5759 5755 5752 5753 5755 5755 5754 5754 5753 5752 5751 5750 5749 5748 5747 5747 5746 5745 5745 5745 5744 5742 5741 5740 5738 5736 5734 5732 5730 5728 5727 5725
5778 5777 5774 5772 5770 5768 5766 5765 5763 5759 5757 5758 5752 5745 5741 5744 5749 5754 5752 5751 5751 5750 5749 5749 5748 5747 5746 5745 5745 5744 5744 5743 5741 5740 5739 5737 5735 5733 5731 5729 5727 5726 5725
5776 5775 5774 5772 5770 5767 5764 5763 5762 5758 5754 5755 5753 5746 5738 5734 5740 5747 5749 5749 5749 5748 5748 5748 5748 5747 5746 5745 5744 5743 5743 5742 5740 5739 5738 5736 5734 5732 5730 5729 5727 5725 5724
5774 5773 5772 5770 5768 5766 5764 5763 5762 5759 5755 5751 5751 5750 5747 5744 5737 5737 5743 5746 5748 5748 5748 5748 5748 5747 5746 5744 5743 5743 5742 5741 5739 5738 5737 5735 5734 5732 5730 5728 5727 5725 5724
5771 5770 5769 5768 5766 5765 5763 5762 5760 5758 5756 5752 5749 5748 5746 5744 5742 5737 5735 5740 5744 5747 5748 5748 5747 5746 5745 5744 5743 5742 5741 5740 5738 5737 5736 5734 5733 5731 5729 5727 5726 5724 5723
5767 5767 5767 5766 5765 5763 5762 5760 5759 5757 5755 5753 5750 5748 5745 5742 5740 5738 5736 5736 5738 5742 5745 5746 5746 5745 5744 5743 5743 5742 5740 5738 5736 5735 5734 5733 5731 5730 5728 5726 5725 5724 5723
5763 5763 5763 5762 5762 5761 5760 5759 5757 5755 5753 5751 5749 5747 5746 5745 5744 5741 5738 5735 5735 5738 5741 5742 5744 5744 5743 5743 5742 5741 5739 5737 5735 5734 5733 5731 5730 5728 5727 5725 5723 5722 5721
5760 5761 5760 5759 5759 5758 5757 5756 5754 5753 5751 5749 5748 5746 5745 5745 5744 5742 5739 5735 5730 5731 5734 5737 5740 5741 5741 5741 5740 5738 5737 5735 5733 5732 5731 5729 5727 5726 5725 5723 5721 5720 5718
5759 5757 5756 5755 5755 5754 5753 5752 5750 5749 5748 5746 5745 5744 5743 5743 5743 5742 5740 5738 5731 5724 5726 5732 5734 5738 5739 5738 5737 5736 5735 5734 5732 5731 5729 5728 5726 5724 5723 5721 5718 5717 5715
5755 5753 5752 5751 5750 5749 5749 5747 5745 5745 5743 5742 5742 5741 5740 5740 5739 5739 5738 5736 5735 5729 5725 5728 5731 5734 5735 5735 5734 5733 5732 5731 5730 5729 5728 5726 5725 5723 5721 5718 5716 5714 5712
5751 5749 5748 5747 5745 5744 5743 5742 5741 5740 5738 5737 5737 5736 5735 5736 5734 5734 5734 5732 5730 5728 5723 5725 5728 5730 5730 5730 5730 5730 5729 5728 5727 5726 5725 5724 5722 5720 5718 5716 5714 5711 5710
5748 5746 5744 5743 5741 5740 5739 5737 5735 5735 5733 5732 5732 5731 5731 5731 5729 5729 5729 5728 5727 5726 5722 5719 5721 5723 5724 5726 5726 5725 5725 5725 5724 5723 5722 5721 5719 5717 5716 5714 5712 5709 5707
5744 5742 5740 5737 5736 5735 5734 5732 5731 5730 5728 5728 5727 5726 5726 5725 5724 5724 5723 5723 5722 5723 5720 5717 5717 5718 5719 5721 5720 5720 5721 5720 5720 5720 5719 5717 5716 5714 5713 5711 5709 5707 5705
5739 5737 5735 5733 5732 5730 5729 5727 5726 5724 5723 5723 5722 5721 5721 5720 5719 5719 5719 5718 5717 5716 5715 5713 5712 5713 5713 5715 5714 5712 5712 5713 5714 5716 5715 5714 5712 5711 5709 5708 5707 5705 5703
5735 5732 5730 5729 5727 5726 5724 5722 5721 5720 5718 5717 5716 5716 5716 5716 5716 5715 5715 5713 5712 5710 5708 5707 5706 5706 5706 5706 5707 5708 5707 5707 5708 5709 5708 5708 5707 5706 5705 5704 5703 5702 5700
5730 5727 5725 5723 5721 5721 5720 5718 5716 5714 5712 5711 5710 5710 5711 5710 5710 5710 5710 5709 5708 5705 5703 5702 5700 5700 5701 5702 5703 5702 5701 5699 5698 5703 5701 5701 5702 5700 5701 5701 5700 5699 5697
5725 5722 5720 5718 5716 5715 5715 5713 5711 5709 5706 5705 5704 5703 5704 5705 5704 5703 5703 5703 5703 5702 5701 5699 5697 5697 5697 5698 5697 5696 5695 5694 5695 5698 5695 5694 5696 5695 5697 5697 5697 5695 5693
5719 5716 5714 5713 5711 5710 5709 5707 5705 5703 5701 5700 5699 5698 5696 5696 5697 5696 5695 5695 5695 5696 5696 5696 5696 5696 5696 5696 5694 5693 5691 5690 5691 5692 5691 5687 5689 5690 5693 5692 5692 5690 5689
5712 5710 5709 5707 5704 5703 5702 5700 5698 5696 5694 5693 5692 5691 5690 5689 5690 5689 5687 5686 5686 5688 5691 5691 5692 5692 5692 5691 5690 5687 5684 5681 5681 5684 5685 5682 5683 5683 5684 5686 5686 5685 5684
5706 5704 5702 5700 5698 5696 5695 5693 5691 5689 5686 5685 5685 5684 5683 5682 5683 5681 5678 5677 5676 5678 5680 5682 5683 5684 5685 5685 5684 5683 5681 5677 5675 5676 5680 5676 5676 5675 5675 5679 5680 5679 5678